#timestamp,LO_Frequency,Hit,StdDev 
1649757615.0,286046996.8,N
1649757615.9,286046996.8,N
1649757635.8,286046998.7,N
1649757655.6,286046996.5,N
1649757675.5,286046995.1,N
1649757695.3,286046997.6,N
1649757715.1,286046996.5,N
1649757735.9,286046998.7,N
1649757755.7,286047000.2,N
1649757775.5,286047005.8,N
1649757795.4,286047006.7,N
1649757815.2,286047001.8,N
1649757835.1,286047003.7,N
1649757836.0,286047003.7,N
1649757855.8,286047006.3,N
1649757875.6,286047007.3,N
1649757895.5,286047003.2,N
1649757915.3,286047000.1,N
1649757935.1,286046997.2,N
1649757955.9,286046993.3,N
1649757975.7,286046994.8,N
1649757995.5,286046993.0,N
1649758015.4,286046990.3,N
1649758035.2,286046988.8,N
1649758055.1,286046988.8,N
1649758056.0,286046988.8,N
1649758075.8,286046987.6,N
1649758095.6,286046986.7,N
1649758115.5,286046984.6,N
1649758135.3,286046983.7,N
1649758155.1,286046984.7,N
1649758175.9,286046981.6,N
1649758195.7,286046981.3,N
1649758215.6,286046980.3,N
1649758235.4,286046977.9,N
1649758255.2,286046977.2,N
1649758275.1,286046972.7,N
1649758276.0,286046972.7,N
1649758295.8,286046973.9,N
1649758315.7,286046970.8,N
1649758335.5,286046968.0,N
1649758355.3,286046969.0,N
1649758375.2,286046973.4,N
1649758395.9,286046973.8,N
1649758415.7,286046969.5,N
1649758435.6,286046971.2,N
1649758455.4,286046967.9,Y
1649758475.3,286046986.1,P
1649758495.1,286046985.3,P
1649758496.0,286046985.3,P
1649758515.8,286046986.4,Y
1649758535.7,286047000.9,P
1649758555.5,286047000.7,N
1649758575.3,286046996.8,N
1649758595.2,286046998.6,N
1649758615.0,286047000.6,N
1649758615.9,286047000.6,N
1649758635.8,286046996.5,N
1649758655.6,286046997.6,N
1649758675.4,286046997.7,N
1649758695.3,286046997.9,N
1649758715.1,286046996.0,N
1649758735.8,286046996.0,N
1649758755.7,286046991.9,N
1649758775.5,286046992.9,N
1649758795.4,286046990.4,N
1649758815.2,286046991.3,N
1649758835.0,286046990.6,N
1649758835.9,286046990.6,N
1649758855.8,286046991.0,N
1649758875.6,286046991.0,N
1649758895.4,286046992.5,N
1649758915.3,286046993.1,N
1649758935.1,286046988.5,N
1649758955.9,286046989.8,N
1649758975.7,286046989.3,N
1649758995.5,286046989.4,N
1649759015.4,286046987.7,N
1649759035.2,286046985.4,Y
1649759055.1,286046993.0,P
1649759056.0,286046993.0,P
1649759075.8,286046992.1,P
1649759095.6,286046992.9,Y
1649759115.5,286046998.5,P
1649759135.3,286047000.8,N
1649759155.1,286047000.4,N
1649759175.9,286047001.0,N
1649759195.7,286047002.3,N
1649759215.6,286047003.9,N
1649759235.4,286047001.6,N
1649759255.2,286047000.2,N
1649759275.1,286046999.8,N
1649759276.0,286046999.8,N
1649759295.8,286047000.6,N
1649759315.6,286047001.2,N
1649759335.5,286046999.2,N
1649759355.3,286046998.1,N
1649759375.2,286046998.8,N
1649759395.9,286046998.9,N
1649759415.7,286046999.0,N
1649759435.6,286046998.7,N
1649759455.4,286046996.5,N
1649759475.2,286046997.8,N
1649759495.1,286046997.9,N
1649759496.0,286046997.9,N
1649759515.8,286046995.5,N
1649759535.7,286046996.2,N
1649759555.5,286046996.0,N
1649759575.3,286046995.5,N
1649759595.2,286046995.5,N
1649759615.0,286046998.0,N
1649759615.9,286046998.0,N
1649759635.8,286046994.9,N
1649759655.6,286046999.5,N
1649759675.4,286047001.0,N
1649759695.3,286046998.5,N
1649759715.1,286046998.3,N
1649759735.8,286046998.6,N
1649759755.7,286047000.7,N
1649759775.5,286047001.1,N
1649759795.4,286046998.2,N
1649759815.2,286047001.8,N
1649759835.0,286047000.3,N
1649759835.9,286047000.3,N
1649759855.8,286047001.0,N
1649759875.6,286046999.1,N
1649759895.4,286046997.8,N
1649759915.3,286046997.9,N
1649759935.1,286046998.5,N
1649759955.9,286047000.6,N
1649759975.7,286047000.8,N
1649759995.5,286046997.5,N
1649760015.4,286046995.0,N
1649760035.2,286046997.1,N
1649760055.0,286046997.5,N
1649760055.9,286046997.5,N
1649760075.8,286046997.8,N
1649760095.6,286046999.5,N
1649760115.5,286046999.9,N
1649760135.3,286046998.1,N
1649760155.1,286046996.8,N
1649760175.9,286046997.3,N
1649760195.7,286046998.1,N
1649760215.5,286047004.8,Y
1649760235.4,286047009.6,P
1649760255.2,286047009.4,N
1649760275.1,286047010.8,N
1649760276.0,286047010.8,N
1649760295.8,286047010.1,N
1649760315.6,286047009.3,N
1649760335.5,286047008.5,N
1649760355.3,286047004.8,N
1649760375.2,286047005.4,N
1649760395.9,286047005.7,N
1649760415.7,286047001.4,N
1649760435.6,286047000.3,N
1649760455.4,286046996.6,N
1649760475.2,286046999.5,N
1649760495.1,286046996.0,N
1649760496.0,286046996.0,N
1649760515.8,286046995.1,N
1649760535.7,286046997.0,N
1649760555.5,286046996.8,N
1649760575.3,286046998.5,N
1649760595.2,286047001.8,N
1649760615.0,286047004.3,N
1649760615.9,286047004.3,N
1649760635.8,286047010.8,N
1649760655.6,286047010.8,N
1649760675.4,286047009.0,N
1649760695.3,286047008.9,N
1649760715.1,286047009.1,N
1649760735.8,286047009.2,N
1649760755.7,286047005.8,N
1649760775.5,286047005.4,N
1649760795.4,286047004.6,N
1649760815.2,286047005.8,N
1649760835.0,286047001.8,N
1649760835.9,286047001.8,N
1649760855.8,286046999.8,N
1649760875.6,286047000.6,N
1649760895.4,286046998.3,N
1649760915.3,286046999.8,N
1649760935.1,286047004.0,N
1649760955.9,286047003.3,N
1649760975.7,286047004.7,N
1649760995.5,286047003.5,N
1649761015.4,286047000.5,N
1649761035.2,286046998.5,N
1649761055.0,286047001.2,N
1649761055.9,286047001.2,N
1649761075.8,286047000.3,N
1649761095.6,286047003.8,N
1649761115.5,286047000.1,N
1649761135.3,286047000.9,N
1649761155.1,286046998.8,N
1649761175.9,286046999.3,N
1649761195.7,286047000.6,N
